Weather History for Moriarty, NM

Change the Weather History Date:

Thursday, October 18, 2012

  Actual Average (KABQ) Record (KABQ)
Temperature  
Mean Temperature 58 °F 57 °F  
Max Temperature 73 °F 68 °F 85 °F (1991)
Min Temperature 44 °F 45 °F 26 °F (1968)
Degree Days  
Heating Degree Days 6 8  
Month to date heating degree days 98  
Since 1 July heating degree days 124  
Cooling Degree Days 0 0  
Month to date cooling degree days 7  
Year to date cooling degree days 1319  
Growing Degree Days 8 (Base 50)    
Moisture  
Dew Point 6 °F    
Average Humidity 11    
Maximum Humidity 19    
Minimum Humidity 9    
Precipitation  
Precipitation 0.00 in 0.04 in 0.22 in (1908)
Month to date precipitation 0.68  
Year to date precipitation 8.04  
Snow  
Snow 0.00 in - - ()
Month to date snowfall  
Since 1 July snowfall  
Since 1 September snowfall  
Snow Depth -    
Sea Level Pressure  
Sea Level Pressure 30.12 in    
Wind  
Wind Speed 13 mph (NW)    
Max Wind Speed 24 mph    
Max Gust Speed 39 mph    
Visibility 10 miles    
Events      
T = Trace of Precipitation, MM = Missing Value Source: NWS Daily Summary

Daily Weather History Graph

Daily Weather History Graph

Search for Another Location

Airport:

Trip Planner

Search our weather history database for the weather conditions in past years. The results will help you decide how hot, cold, wet, or windy it might be!

Date:

Astronomy

Oct. 18, 2012 Rise Set
Actual Time 7:12 AM MDT 6:24 PM MDT
Civil Twilight 6:47 AM MDT 6:50 PM MDT
Nautical Twilight 6:17 AM MDT 7:19 PM MDT
Astronomical Twilight 5:48 AM MDT 7:48 PM MDT
Moon 10:49 AM MDT (10/18) 9:09 PM MDT (10/18)
Length of Visible Light 12h 02m
Length of Day
11h 11m
Waxing Crescent, 15% of the Moon is Illuminated
Oct 18
Waxing Crescent
Oct 21
First Quarter
Oct 29
Full
Nov 6
Last Quarter
Nov 13
New

Hourly Weather History & Observations

Time (MDT) Temp. Windchill Dew Point Humidity Pressure Visibility Wind Dir Wind Speed Gust Speed Precip Events Conditions
12:15 AM 55.6 °F - -3.1 °F 9% 30.08 in 10.0 mi NE 5.8 mph - N/A   Clear
12:35 AM 52.9 °F - -2.6 °F 10% 30.08 in 10.0 mi NE 10.4 mph - N/A   Clear
12:55 AM 55.2 °F - -2.6 °F 9% 30.09 in 10.0 mi NNE 5.8 mph - N/A   Clear
1:15 AM 53.8 °F - -2.4 °F 10% 30.10 in 10.0 mi North 9.2 mph - N/A   Clear
1:35 AM 55.6 °F - -2.2 °F 9% 30.09 in 10.0 mi NW 15.0 mph 19.6 mph N/A   Clear
1:55 AM 57.9 °F - -2.0 °F 9% 30.09 in 10.0 mi NW 17.3 mph 34.5 mph N/A   Clear
2:15 AM 56.8 °F - -2.2 °F 9% 30.09 in 10.0 mi NW 17.3 mph 25.3 mph N/A   Clear
2:35 AM 56.5 °F - -2.4 °F 9% 30.09 in 10.0 mi NW 20.7 mph 29.9 mph N/A   Clear
2:55 AM 57.7 °F - -2.2 °F 9% 30.09 in 10.0 mi NW 21.9 mph 39.1 mph N/A   Clear
3:15 AM 56.8 °F - -2.0 °F 9% 30.09 in 10.0 mi NW 23.0 mph 35.7 mph N/A   Clear
3:35 AM 55.9 °F - -1.5 °F 10% 30.08 in 10.0 mi NW 23.0 mph 33.4 mph N/A   Clear
3:55 AM 55.8 °F - -1.3 °F 10% 30.08 in 10.0 mi NW 24.2 mph 38.0 mph N/A   Clear
4:15 AM 56.1 °F - -0.8 °F 10% 30.08 in 10.0 mi NW 21.9 mph 34.5 mph N/A   Clear
4:35 AM 57.2 °F - 0.1 °F 10% 30.08 in 10.0 mi NW 18.4 mph 38.0 mph N/A   Clear
4:55 AM 53.6 °F - -0.6 °F 11% 30.10 in 10.0 mi NNW 10.4 mph 27.6 mph N/A   Clear
5:15 AM 53.2 °F - -0.4 °F 11% 30.10 in 10.0 mi NNW 9.2 mph 19.6 mph N/A   Clear
5:35 AM 52.9 °F - 0.5 °F 12% 30.11 in 10.0 mi WNW 4.6 mph - N/A   Clear
5:55 AM 46.8 °F - -0.9 °F 14% 30.11 in 10.0 mi SE 4.6 mph - N/A   Clear
6:15 AM 50.5 °F - 0.7 °F 13% 30.12 in 10.0 mi Calm Calm - N/A   Clear
6:35 AM 44.2 °F 42.7 °F -0.6 °F 15% 30.12 in 10.0 mi SE 3.5 mph - N/A   Clear
6:55 AM 46.6 °F - -0.0 °F 15% 30.13 in 10.0 mi NE 8.1 mph - N/A   Clear
7:15 AM 50.4 °F - 0.3 °F 13% 30.14 in 10.0 mi ENE 3.5 mph - N/A   Clear
7:35 AM 49.1 °F - 0.1 °F 13% 30.15 in 10.0 mi North 4.6 mph - N/A   Clear
7:55 AM 50.4 °F - 1.4 °F 13% 30.15 in 10.0 mi North 12.7 mph 17.3 mph N/A   Clear
8:15 AM 52.7 °F - 2.3 °F 13% 30.15 in 10.0 mi North 15.0 mph - N/A   Clear
8:35 AM 54.5 °F - 2.7 °F 12% 30.15 in 10.0 mi NNW 16.1 mph - N/A   Clear
8:55 AM 56.3 °F - 3.6 °F 12% 30.16 in 10.0 mi NNW 17.3 mph 24.2 mph N/A   Clear
9:15 AM 58.1 °F - 4.1 °F 11% 30.16 in 10.0 mi NNW 24.2 mph 28.8 mph N/A   Clear
9:35 AM 59.5 °F - 5.2 °F 11% 30.16 in 10.0 mi NNW 24.2 mph 29.9 mph N/A   Clear
9:55 AM 61.3 °F - 6.3 °F 11% 30.16 in 10.0 mi North 18.4 mph 23.0 mph N/A   Clear
10:15 AM 63.1 °F - 7.0 °F 11% 30.16 in 10.0 mi NNW 21.9 mph 25.3 mph N/A   Clear
10:35 AM 64.0 °F - 7.5 °F 11% 30.16 in 10.0 mi NNW 16.1 mph - N/A   Clear
10:55 AM 65.7 °F - 8.4 °F 11% 30.16 in 10.0 mi NNW 16.1 mph 21.9 mph N/A   Clear
11:15 AM 66.6 °F - 9.1 °F 11% 30.16 in 10.0 mi NNW 12.7 mph - N/A   Clear
11:35 AM 66.6 °F - 9.1 °F 11% 30.16 in 10.0 mi North 12.7 mph 20.7 mph N/A   Clear
11:55 AM 67.8 °F - 9.3 °F 10% 30.16 in 10.0 mi NNW 10.4 mph - N/A   Clear
12:15 PM 68.9 °F - 9.9 °F 10% 30.16 in 10.0 mi NNW 12.7 mph 20.7 mph N/A   Clear
12:35 PM 69.8 °F - 10.4 °F 10% 30.15 in 10.0 mi NNW 13.8 mph 20.7 mph N/A   Clear
12:55 PM 70.9 °F - 10.4 °F 10% 30.14 in 10.0 mi North 13.8 mph 18.4 mph N/A   Clear
1:15 PM 71.2 °F - 10.8 °F 10% 30.14 in 10.0 mi NNW 18.4 mph 23.0 mph N/A   Clear
1:35 PM 71.6 °F - 10.9 °F 10% 30.12 in 10.0 mi NNW 17.3 mph 23.0 mph N/A   Clear
1:55 PM 72.1 °F - 11.3 °F 10% 30.11 in 10.0 mi NW 17.3 mph - N/A   Clear
2:15 PM 73.2 °F - 11.1 °F 9% 30.11 in 10.0 mi WNW 12.7 mph 20.7 mph N/A   Clear
2:35 PM 73.4 °F - 11.3 °F 9% 30.10 in 10.0 mi NW 10.4 mph 16.1 mph N/A   Clear
2:55 PM 72.5 °F - 10.9 °F 9% 30.10 in 10.0 mi WNW 12.7 mph 17.3 mph N/A   Clear
3:15 PM 73.4 °F - 11.3 °F 9% 30.10 in 10.0 mi WNW 15.0 mph 23.0 mph N/A   Clear
3:35 PM 72.3 °F - 11.1 °F 10% 30.10 in 10.0 mi West 19.6 mph 25.3 mph N/A   Clear
3:55 PM 72.9 °F - 11.1 °F 9% 30.11 in 10.0 mi West 19.6 mph 23.0 mph N/A   Clear
4:15 PM 72.3 °F - 11.3 °F 10% 30.10 in 10.0 mi West 19.6 mph 24.2 mph N/A   Clear
4:35 PM 71.6 °F - 11.3 °F 10% 30.10 in 10.0 mi West 17.3 mph 24.2 mph N/A   Clear
4:55 PM 72.3 °F - 11.8 °F 10% 30.10 in 10.0 mi WNW 18.4 mph 24.2 mph N/A   Scattered Clouds
5:15 PM 71.2 °F - 12.0 °F 10% 30.10 in 10.0 mi West 18.4 mph 25.3 mph N/A   Scattered Clouds
5:35 PM 69.8 °F - 11.7 °F 11% 30.10 in 10.0 mi West 15.0 mph 23.0 mph N/A   Scattered Clouds
5:55 PM 68.5 °F - 11.5 °F 11% 30.10 in 10.0 mi West 16.1 mph - N/A   Scattered Clouds
6:15 PM 67.3 °F - 11.3 °F 11% 30.11 in 10.0 mi West 13.8 mph 20.7 mph N/A   Scattered Clouds
6:35 PM 64.9 °F - 11.1 °F 12% 30.11 in 10.0 mi West 12.7 mph - N/A   Scattered Clouds
6:55 PM 62.8 °F - 10.9 °F 13% 30.12 in 10.0 mi West 12.7 mph - N/A   Clear
7:15 PM 61.5 °F - 10.9 °F 14% 30.12 in 10.0 mi WNW 9.2 mph - N/A   Clear
7:35 PM 59.0 °F - 10.4 °F 15% 30.12 in 10.0 mi WNW 10.4 mph - N/A   Clear
7:55 PM 56.3 °F - 10.2 °F 16% 30.13 in 10.0 mi WNW 9.2 mph - N/A   Clear
8:15 PM 56.1 °F - 10.4 °F 16% 30.14 in 10.0 mi NW 5.8 mph - N/A   Clear
8:35 PM 53.1 °F - 10.9 °F 19% 30.14 in 10.0 mi Calm Calm - N/A   Clear
8:55 PM 54.3 °F - 10.9 °F 18% 30.15 in 10.0 mi SE 5.8 mph - N/A   Clear
9:15 PM 53.2 °F - 11.1 °F 19% 30.14 in 10.0 mi South 4.6 mph - N/A   Clear
9:35 PM 58.6 °F - 11.5 °F 16% 30.14 in 10.0 mi South 5.8 mph - N/A   Clear
9:55 PM 58.6 °F - 11.3 °F 15% 30.15 in 10.0 mi West 3.5 mph - N/A   Clear